Terug naar catalogus

STARLINK-36274

ActiefCommunicatieVLEO
NORAD 68251·PAYLOAD·🇺🇸 United States

Gelanceerd Mar 17, 2026 vanaf Vandenberg Space Force Base

Loading…

Volgende Passages (komende 24 uur)

TLE

VersSource: CelesTrak SupGP

Epoch: Sep 14, 2026, 20:59 UTC

1 68251C 26054V   26257.87479167 -.00056534  00000+0 -16701-2 0  2578
2 68251  53.1577 136.1894 0001191  81.0920 316.5799 15.34422036    17

Volg STARLINK-36274 in realtime met AllMySat

Download on the App Store